933  
ASUS44 KCRP 181710  
HRRCRP  
 
SOUTH TEXAS REGIONAL WEATHER ROUNDUP  
NATIONAL WEATHER SERVICE CORPUS CHRISTI TX  
1200 PM CDT SUN AUG 18 2019  
 
TXZ229>244-181800-   
..CORPUS CHRISTI AREA OBSERVATIONS
 
 
 
CITY SKY/WX TMP DP RH WIND PRES REMARKS  
CORPUS CHRISTI PTSUNNY 94 77 57 S18 29.90R HX 108  
NAS CORPUS CHR MOSUNNY 92 81 70 S20G29 29.91R HX 112  
ROCKPORT PTSUNNY 89 78 70 S16G22 29.92R HX 103  
KINGSVILLE NAS MOSUNNY 98 73 44 S18G24 29.88F HX 108  
ALICE SUNNY 97 73 45 S18 29.88F HX 107  

 
   
..VICTORIA AREA OBSERVATIONS
 
 
 
CITY SKY/WX TMP DP RH WIND PRES REMARKS  
PORT LAVACA MOSUNNY 95 79 59 S16 29.92F HX 113  
VICTORIA MOSUNNY 96 72 45 SW16G29 29.91S HX 104  
BEEVILLE NOT AVBL  
PLEASANTON PTSUNNY 92 71 49 S10G17 29.91S HX 98  
SAN ANTONIO PTSUNNY 90 71 53 S12 29.93S HX 96  

 
   
..LAREDO AREA OBSERVATIONS
 
 
 
CITY SKY/WX TMP DP RH WIND PRES REMARKS  
LAREDO SUNNY 95 70 44 S10G18 29.86F HX 101  
COTULLA MOSUNNY 93 70 46 S10 29.89S HX 99  
DEL RIO SUNNY 92 69 47 SE8G18 29.88S HX 97  
MCALLEN MOSUNNY 97 72 44 SE17G24 29.87F HX 105  
HEBBRONVILLE SUNNY 94 66 39 S9G21 29.89F HX 97  

 
   
..OTHER TEXAS OBSERVATIONS
 
 
 
CITY SKY/WX TMP DP RH WIND PRES REMARKS  
BROWNSVILLE FAIR 97 76 50 SE22G29 29.89R HX 110  
HOUSTON PTSUNNY 94 74 52 SW9 29.93S HX 104  
COL. STATION SUNNY 93 72 50 S14 29.92S HX 101  
AUSTIN MOSUNNY 93 72 50 S12G22 29.91F HX 101  
TEMPLE SUNNY 93 73 52 S18G24 29.91S HX 102  
WACO SUNNY 93 71 48 S14 29.91S HX 100  
FORT WORTH MOSUNNY 92 71 50 S13 29.89S HX 98  
WICHITA FALLS SUNNY 96 72 45 S17 29.85S HX 104  
LUBBOCK MOSUNNY 93 61 34 SW16 29.94S HX 93  
EL PASO MOSUNNY 91 39 16 SW5 30.03S  

 
   
..MARINE OBSERVATIONS
 
 
 
STATION/POSITION TIME SKY/WX TEMP WIND PRES VSBY WAVE SWELL  
AIR SEA DIR/SP/G HT/PER HT/PER  
(UTC) (F) (DEG/KT/KT) (MB) (MI) (FT/S) (FT/S)  
PORT ARANSAS 1700 84 85 150/ 10/ 11 1013.3R  
BUOY 90 E PORT A NOT AVBL  
BUOY 45 SE BAFFI 1650 86 85 170/ 14/ 17 1013.0S 5/ 7  
BUOY 200 E PT IS 1650 87 88 170/ 14/ 16 1014.7R 4/ 7 2/21  
BUOY 15 E GALVES 1650 88 190/ 14/ 17 1015.3R 4/ 6  

 
 
 
CLICK HERE TO GO TO PREVIOUS BULLETINS.

The Nexlab TX Page Main Text Page